Hourly Data Report for September 18, 2017

All times are specified in Local Standard Time (LST). Add 1 hour to adjust for Daylight Saving Time where and when it is observed.

HALL BEACH A
NUNAVUT

68°46'33.000" N
81°14'33.000" W
9.10 m
2402354
71293
YUX

Related Data

No related data is available for this station

Download Data

Hourly Data (September 2017)
Hourly Data Report for September 18, 2017
Temp Definition
°C
Dew Point Temp Definition
°C
Rel Hum Definition
%
Wind Dir Definition
10's deg

Wind Spd Definition
km/h
Visibility Definition
km
Stn Press Definition
kPa
Hmdx Definition


Wind Chill Definition


Weather Definition


TIME
00:00 Legend Double Dagger 3.6 2.1 90 23 26 16.1 100.93     LegendNANA
01:00 Legend Double Dagger 4.3 2.7 89 24 28 16.1 100.90     LegendNANA
02:00 Legend Double Dagger 4.4 2.8 89 24 30 16.1 100.87     LegendNANA
03:00 Legend Double Dagger 4.2 2.6 89 23 28 16.1 100.87     LegendNANA
04:00 Legend Double Dagger 4.1 2.6 90 24 30 16.1 100.85     LegendNANA
05:00 Legend Double Dagger 4.5 2.7 88 23 32 16.1 100.82     LegendNANA
06:00 Legend Double Dagger 4.7 2.7 87 24 37 16.1 100.78     LegendNANA
07:00 Legend Double Dagger 4.4 2.5 87 21 21 16.1 100.82     LegendNANA
08:00 Legend Double Dagger 6.8 3.6 80 26 34 16.1 100.80     LegendNANA
09:00 Legend Double Dagger 7.5 4.1 79 27 26 16.1 100.82     LegendNANA
10:00 Legend Double Dagger 8.5 4.5 76 27 32 16.1 100.84     LegendNANA
11:00 Legend Double Dagger 8.5 4.3 75 28 43 16.1 100.82     LegendNANA
12:00 Legend Double Dagger 8.4 4.3 76 27 37 16.1 100.83     LegendNANA
13:00 Legend Double Dagger 8.6 4.5 76 27 35 16.1 100.84     LegendNANA
14:00 Legend Double Dagger 8.4 4.4 76 28 35 16.1 100.87     LegendNANA
15:00 Legend Double Dagger 8.3 4.5 77 29 26 16.1 100.94     LegendNANA
16:00 Legend Double Dagger 7.7 4.5 80 30 26 16.1 100.95     LegendNANA
17:00 Legend Double Dagger 7.0 4.3 83 29 13 16.1 101.00     LegendNANA
18:00 Legend Double Dagger 6.7 4.0 83 29 9 16.1 101.02     LegendNANA
19:00 Legend Double Dagger 5.8 4.3 90 28 8 16.1 101.08     Rain
20:00 Legend Double Dagger 5.7 4.0 89 30 11 16.1 101.08     LegendNANA
21:00 Legend Double Dagger 5.3 3.8 90 27 11 16.1 101.08     LegendNANA
22:00 Legend Double Dagger 5.2 3.9 91 28 8 16.1 101.10     LegendNANA
23:00 Legend Double Dagger 4.7 3.5 92 31 18 16.1 101.10     LegendNANA

Notes on Data Quality.

Legend

  • E = Estimated
  • M = Missing
  • NA = Not Available
  • ‡ = Partner data that is not subject to review by the National Climate Archives
Date modified: